Overview Statistics Trail Chart Weather Telemetry Raw packets
 

This is the latest recevied weather packets stored in our database for station/object 4S6DRJ-13. If no packets are shown the sender has not sent any weather packets the latest 10 day(s).

<< 319 320 321 322 323 324 325 >>
Time Temp. Humidity Pressure Rain* Wind** Luminosity Snow
1787993526 30° C 77% 1008.4 hPa 0 mm 1.79 m/s, 310° 949 W/m² -
1787993465 30° C 77% 1008.5 hPa 0 mm 1.79 m/s, 232° 384 W/m² -
1787993404 30° C 76% 1008.3 hPa 0 mm 2.68 m/s, 247° 1101 W/m² -
1787993343 30° C 76% 1008.3 hPa 0 mm 1.79 m/s, 84° 366 W/m² -
1787993282 30.56° C 75% 1008.6 hPa 0 mm 2.68 m/s, 218° 304 W/m² -
1787993221 30.56° C 75% 1008.5 hPa 0 mm 1.79 m/s, 46° 297 W/m² -
1787993161 30.56° C 74% 1008.5 hPa 0 mm 1.79 m/s, 216° 317 W/m² -
1787993099 30.56° C 74% 1008.5 hPa 0 mm 1.79 m/s, 338° 293 W/m² -
1787993038 30.56° C 74% 1008.6 hPa 0 mm 1.79 m/s, 339° 271 W/m² -
1787992977 30.56° C 74% 1008.5 hPa 0 mm 1.79 m/s, 193° 322 W/m² -
1787992916 30.56° C 74% 1008.5 hPa 0 mm 2.68 m/s, 234° 401 W/m² -
1787992855 31.11° C 73% 1008.4 hPa 0 mm 2.68 m/s, 225° 740 W/m² -
1787992794 31.11° C 73% 1008.5 hPa 0 mm 2.24 m/s, 303° 368 W/m² -
1787992733 30.56° C 73% 1008.4 hPa 0 mm 2.68 m/s, 262° 511 W/m² -
1787992672 30.56° C 74% 1008.6 hPa 0 mm 2.68 m/s, 209° 758 W/m² -
1787992611 30.56° C 74% 1008.6 hPa 0 mm 1.79 m/s, 247° 1109 W/m² -
1787992550 30.56° C 73% 1008.5 hPa 0 mm 3.13 m/s, 228° 1111 W/m² -
1787992489 31.11° C 72% 1008.6 hPa 0 mm 3.58 m/s, 286° 837 W/m² -
1787992428 31.11° C 73% 1008.8 hPa 0 mm 1.34 m/s, 207° 1118 W/m² -
1787992368 31.11° C 73% 1008.5 hPa 0 mm 2.68 m/s, 267° 428 W/m² -
1787992306 31.11° C 73% 1008.6 hPa 0 mm 2.24 m/s, 266° 765 W/m² -
1787992244 31.11° C 73% 1008.5 hPa 0 mm 2.24 m/s, 306° 568 W/m² -
1787992183 31.11° C 72% 1008.8 hPa 0 mm 3.13 m/s, 282° 440 W/m² -
1787992123 31.11° C 72% 1008.7 hPa 0 mm 1.34 m/s, 236° 389 W/m² -
1787992061 31.11° C 73% 1008.5 hPa 0 mm 2.68 m/s, 282° 621 W/m² -

* Rain latest hour (hover to see other rain measurements)
** Current wind speed in m/s (hover to see current wind gust speed)